Flag for U.S.A. Weather past 2 weeks in Sarasota, Florida, U.S.A.

Now
81 °F

Clear.


Feels Like: 86 °F
Forecast: 79 / 93 °F
Wind: No wind

Location: Sarasota-Bradenton International Airport

Current Time: Aug 23, 2014 at 7:33:20 AM

Latest Report: Aug 23, 2014 at 6:53 AM


Visibility: 9 mi

Pressure: 29.96 "Hg

Humidity: 79%

Dew point: 74 °F

Location of SarasotaLocation

Historic Weather in Sarasota — Graph

°F

Sarasota temperature yesterday

Maximum temperature yesterday: 95 °F (at 5:53 PM)
Minimum temperature yesterday: 79 °F (at 3:53 AM)
Average temperature yesterday: 87 °F

Past Weeks' High & Low Weather Summary

 TemperatureHumidityPressure
High97 °F (Aug 21, 12:53 PM)94% (Aug 16, 3:53 AM)30.12 "Hg (Aug 16, 3:53 AM)
Low76 °F (Aug 15, 10:53 PM)43% (Aug 21, 12:53 PM)29.94 "Hg (Aug 12, 6:53 PM)
Average85 °F72%30.02 "Hg
* Reported Aug 8 5:53 AM — Aug 23 5:53 AM, Sarasota, Weather by CustomWeather, © 2014

Note: Actual official high and low records may vary slightly from our data, if they occured in-between our weather recording intervals... More about our weather records

Advertising

Sarasota weather history for previous 24 hours

 ConditionsComfort  
Time TempWeatherWind HumidityBarometerVisibility
5:53 AM
Aug 23
82 °FClear.No wind74%29.95 "Hg10 mi
4:53 AM82 °FClear.No wind74%29.95 "Hg10 mi
3:53 AM82 °FClear.No wind74%29.94 "Hg10 mi
2:53 AM83 °FClear.3 mph70%29.95 "Hg10 mi
1:53 AM85 °FClear.3 mph68%29.97 "Hg10 mi
12:53 AM85 °FClear.No wind68%29.99 "Hg10 mi
11:53 PM
Aug 22
86 °FClear.3 mph67%30.00 "Hg10 mi
10:53 PM84 °FClear.3 mph70%30.00 "Hg10 mi
9:53 PM88 °FClear.No wind59%30.00 "Hg10 mi
8:53 PM87 °FSunny.3 mph59%29.99 "Hg10 mi
7:53 PM92 °FSunny.7 mph56%29.99 "Hg10 mi
6:53 PM94 °FSunny.10 mph51%29.98 "Hg10 mi
5:53 PM95 °FSunny.9 mph60%29.98 "Hg10 mi
4:53 PM94 °FSunny.8 mph58%30.00 "Hg10 mi
3:53 PM87 °FThunderstorms. Mostly cloudy.16 mph57%30.01 "Hg3 mi
2:53 PM94 °FThundershowers. Sunny.10 mph58%30.03 "Hg10 mi
1:53 PM94 °FSunny.12 mph58%30.04 "Hg10 mi
12:53 PM94 °FPassing clouds.8 mph56%30.06 "Hg10 mi
11:53 AM93 °FPassing clouds.6 mph56%30.07 "Hg10 mi
10:53 AM92 °FSunny.5 mph58%30.08 "Hg10 mi
9:53 AM88 °FSunny.3 mph63%30.07 "Hg10 mi
8:53 AM85 °FSunny.No wind68%30.07 "Hg10 mi
7:53 AM81 °FClear.5 mph79%30.05 "Hg10 mi
Weather by CustomWeather, © 2014

See weather overviewHow to use our weather pages